BTK6581 WICC-WARR

Flight info

Callsign BTK6581
Flight time N/A
Altitude 31000
Route CA T3 BA
Aircraft A320/M-SDE3FGHIRWY/LB1

Departure

Time 2026-04-19 06:42
Airport Husein Sastranegara International Airport (WICC)

Arrival

Time N/A
Airport Juanda International Airport (WARR)
Time Latitude Longitude Altitude Speed Heading
2026-04-19 06:28 -6.90261 107.57703 2413 ft 0 kts 188°
2026-04-19 06:37 -6.90265 107.57702 2414 ft 3 kts 188°
2026-04-19 06:37 -6.90279 107.57693 2407 ft 2 kts 227°
2026-04-19 06:38 -6.90278 107.57683 2412 ft 2 kts 295°
2026-04-19 06:38 -6.90261 107.57675 2411 ft 3 kts 346°
2026-04-19 06:38 -6.90206 107.57682 2411 ft 15 kts 18°
2026-04-19 06:38 -6.90127 107.57714 2411 ft 9 kts 42°
2026-04-19 06:39 -6.90118 107.57773 2401 ft 11 kts 96°
2026-04-19 06:39 -6.90168 107.57935 2411 ft 29 kts 108°
2026-04-19 06:39 -6.90230 107.58112 2413 ft 25 kts 109°
2026-04-19 06:39 -6.90283 107.58269 2415 ft 20 kts 109°
2026-04-19 06:40 -6.90330 107.58403 2416 ft 17 kts 109°
2026-04-19 06:40 -6.90375 107.58487 2409 ft 11 kts 140°
2026-04-19 06:40 -6.90385 107.58543 2409 ft 7 kts
2026-04-19 06:40 -6.90380 107.58536 2405 ft 0 kts 292°
2026-04-19 06:41 -6.90371 107.58514 2410 ft 20 kts 290°
2026-04-19 06:41 -6.90228 107.58098 2415 ft 104 kts 289°
2026-04-19 06:41 -6.89914 107.57183 2438 ft 166 kts 289°
2026-04-19 06:42 -6.89547 107.56055 3226 ft 168 kts 289°
2026-04-19 06:42 -6.89207 107.54937 4169 ft 166 kts 287°
2026-04-19 06:42 -6.88894 107.53805 4593 ft 174 kts 286°
2026-04-19 06:42 -6.88551 107.52560 4740 ft 195 kts 286°
2026-04-19 06:43 -6.88174 107.51187 4928 ft 213 kts 285°
2026-04-19 06:43 -6.87760 107.49668 5077 ft 238 kts 285°
2026-04-19 06:43 -6.87308 107.48003 5365 ft 261 kts 285°
2026-04-19 06:43 -6.86820 107.46210 5633 ft 275 kts 285°
2026-04-19 06:44 -6.86302 107.44314 6353 ft 284 kts 285°
2026-04-19 06:44 -6.85702 107.42408 7195 ft 288 kts 297°
2026-04-19 06:44 -6.84385 107.40902 7978 ft 294 kts 328°
2026-04-19 06:44 -6.82447 107.40298 8746 ft 296 kts
2026-04-19 06:45 -6.81876 107.40313 8851 ft 292 kts